Current Version              Previous Version:    01  02  03  04  05  06  07  08  09  10  11  12  13  14  15  16  17  18  19  20  21  22  23  24  25  26  27  28  29  30  
   31  32  33  34  35  36  37  38  39  40  41  42  43  44  45  46  47  48  49  50  51  52  53  54  55  56  57  58  59  60  

[Printable]
815
ASUS44 KLUB 290201
RWRTX
WEST TEXAS WEATHER ROUNDUP
NATIONAL WEATHER SERVICE LUBBOCK TX
900 PM CDT MON JUL 28 2014

NOTE: "FAIR" INDICATES FEW OR NO CLOUDS BELOW 12,000 FEET WITH NO
SIGNIFICANT WEATHER AND/OR OBSTRUCTIONS TO VISIBILITY.

TXZ004-006>008-010-012-014-016-OKZ002-290300-
TEXAS PANHANDLE/OKLAHOMA PANHANDLE

CITY           SKY/WX    TMP DP  RH WIND       PRES   REMARKS
AMARILLO       PTCLDY    71  64  78 SE8       30.27R
BORGER         MOCLDY    74  61  63 E5        30.24F
CANADIAN       CLOUDY    74  64  71 E5        30.21S
DALHART        PTCLDY    72  64  76 E8        30.28S
DUMAS          MOCLDY    69  62  78 E6        30.27S
GUYMON         MOCLDY    71  61  70 S5        30.24F
HEREFORD       MOCLDY    71  68  90 NE3       30.27R
PAMPA          MOCLDY    70  62  77 SE3       30.26S
PERRYTON       MOCLDY    71  58  63 CALM      30.24S
$$

TXZ026-029-035-045-048-290300-
SOUTHERN PANHANDLE/SOUTH PLAINS/ROLLING PLAINS

CITY           SKY/WX    TMP DP  RH WIND       PRES   REMARKS
CHILDRESS      MOCLDY    73  65  75 SE5       30.19S
SEMINOLE       CLEAR     84  61  46 E16G23    30.20R
LUBBOCK        MOCLDY    79  62  56 E13       30.21S
PLAINVIEW      CLEAR     75  67  74 E6        30.22S
SNYDER         PTCLDY    84  64  50 E8        30.16R
$$

TXZ052-054-060>062-072-078-127-140-154-169-290300-
PERMIAN BASIN/CONCHO VALLEY/BIG COUNTRY/EDWARDS PLATEAU

CITY           SKY/WX    TMP DP  RH WIND       PRES   REMARKS
ABILENE        PTCLDY    86  62  44 E9        30.12R
BIG SPRING     PTCLDY    87  63  44 NE15G22   30.16R
BRADY          CLEAR     86  66  51 E13       30.09R
BROWNWOOD      MOCLDY    84  64  51 E9        30.09S
JUNCTION       CLEAR     89  59  36 SE7       30.06R
MIDLAND        CLEAR     86  64  47 E17       30.13R
ODESSA         CLEAR     86  62  44 E20G28    30.15R
SAN ANGELO     CLEAR     87  66  49 E17G25    30.09R
SONORA         PTCLDY    93  54  26 E5        30.11R
SWEETWATER     PTCLDY    85  62  46 E13G18    30.18R
WINK           PTCLDY    90  62  39 E23G31    30.07R
$$

TXZ055-058-074-075-080-082-290300-
FAR WEST/SOUTHWEST MOUNTAINS/TRANS PECOS

CITY           SKY/WX    TMP DP  RH WIND       PRES   REMARKS
ALPINE         PTCLDY    82  52  35 SE13      30.26R
DRYDEN           N/A     94  49  21 SE10      30.06R
EL PASO        PTCLDY    90  53  28 E12       30.11S
FORT STOCKTON  CLEAR     90  55  30 SE10      30.10S
GUADALUPE PASS CLEAR     80  49  33 E16       30.28S
MARFA          PTCLDY    75  57  53 E9        30.25R
PRESIDIO       FAIR      92  54  27 MISG      30.03S
$$

TXZ014-016-019-021>030-083-290300
TEXAS TECH WEST TEXAS MESONET/TEXAS PANHANDLE/NORTHERN SOUTH PLAINS

CITY           SKY/WX    TMP DP  RH WIND       PRES   REMARKS
ABERNATHY 5ENE   N/A     76  63  65 E9        30.24R
AMARILLO 9NNE    N/A     73  65  76 SE7       30.25R
AMARILLO 7SSE    N/A     70  62  75 SE8       30.27R
AMHERST 1NE      N/A     77  64  64 E12       30.24S
BOOTLEG 11WNW    N/A     73  64  74 SE7       30.31S
CANADIAN 6E      N/A     72  64  74 NE5       30.21S
CAPROCK CYN SP   N/A     69  66  88 N2        30.22S
CHILDRESS 2NNE   N/A     72  64  75 E6        30.18S
CLARENDON 2WSW   N/A     71  63  73 E3        30.23R
CLAUDE 12SW      N/A     69  63  81 SE2       30.25S
DIMMITT 2NE      N/A     72  64  77 E6        30.26S
FLOYDADA 2NNE    N/A     73  63  71 E9        30.23R
FRIONA 2NE       N/A     74  63  69 SE6       30.28R
GOODLETT 3W      N/A     73  64  73 E2        30.16S
HART 3N          N/A     72  64  76 E7        30.25S
HEREFORD 2NW     N/A     71  65  80 E5        30.27R
MEMPHIS 1NE      N/A     72  63  73 E2        30.19S
MULESHOE 2SSW    N/A     76  63  63 E9        30.25R
OLTON 6S         N/A     75  64  66 E9        30.23S
PALO DURO SP     N/A     70  62  75 SE5       30.27R
PAMPA 2E         N/A     71  63  77 E5        30.25S
PLAINVIEW 1S     N/A     74  65  72 E7        30.23R
SILVERTON 7ESE   N/A     68  64  88 NE6       30.23S
TULIA 2ENE       N/A     68  66  93 NE9       30.25R
TURKEY 2WSW      N/A     72  64  77 NE6       30.20R
UMBARGER 3NNE    N/A     70  62  75 SE6       30.28R
$$

TXZ033>036-039>041-045>048-290300
TEXAS TECH WEST TEXAS MESONET/SOUTH PLAINS

CITY           SKY/WX    TMP DP  RH WIND       PRES   REMARKS
AIKEN 3WSW       N/A     72  65  78 E6        30.24S
ANTON 6SSW       N/A     79  64  58 E12       30.22S
BROWNFIELD 2S    N/A     81  61  50 E10       30.20S
DENVR CTY 7WNW   N/A     82  58  43 E13       30.20S
GAIL 2ESE        N/A     84  63  48 E10       30.15R
LAMESA 2SE       N/A     83  62  49 E9        30.18S
LEVELLAND 4S     N/A     80  61  52 E10       30.22S
LUBBOCK 3WNW     N/A     79  61  54 E12       30.21S
MORTON 1ENE      N/A     79  63  57 E9        30.24R
ODONNELL 1N      N/A     82  60  47 E13       30.19R
PLAINS 3N        N/A     81  61  50 E12       30.22S
RALLS 1SE        N/A     77  63  62 E9        30.23R
REESE CENTER     N/A     79  62  54 E12       30.22R
SEAGRAVES 1SW    N/A     83  62  48 E10       30.19S
SEMINOLE 2NNE    N/A     84  60  45 E17       30.18S
SLATON 2NE       N/A     78  62  56 E12       30.21S
SNYDER 3E        N/A     83  63  49 NE9       30.15R
SUNDOWN 8SW      N/A     80  62  52 E10       30.22S
TAHOKA 3NNE      N/A     80  62  53 E8        30.20R
WOLFFORTH 6SSW   N/A     80  62  54 E10       30.21S
$$

TXZ031-032-036>038-042>044-290300-
TEXAS TECH WEST TEXAS MESONET/ROLLING PLAINS

CITY           SKY/WX    TMP DP  RH WIND       PRES   REMARKS
ASPERMONT 3NE    N/A     81  64  55 NE8       30.15R
FLUVANNA 3WNW    N/A     82  61  48 E12       30.17R
GRAHAM 5SSW      N/A     82  62  50 E13       30.19R
GUTHRIE 10WSW    N/A     78  63  59 NE7       30.17R
HASKELL 1NW      N/A     81  62  51 NE7       30.13S
JAYTON 1SSE      N/A     80  65  59 NE10      30.15S
KNOX CITY 3NW    N/A     80  59  48 NE10      30.14S
LK A HENRY 1NW   N/A     83  64  52 E8        30.16R
NORTHFIELD 1S    N/A     74  62  64 E7        30.19R
ODELL 4ENE       N/A     74  69  82 CALM      30.16S
PADUCAH 10SW     N/A     75  62  63 NE7       30.18R
POST 1NE         N/A     82  61  49 E9        30.18R
RRING SPRGS 3N   N/A     74  65  72 E8        30.20S
SEYMOUR 3NW      N/A     75  59  57 NE8       30.14S
SPUR 1W          N/A     79  63  57 E9        30.17R
WEINERT 2NNE     N/A     80  63  57 NE8       30.14R
WHITE RVR 6NE    N/A     78  63  58 E9        30.20R
$$

TXZ052-054-060>062-072-078-127-140-154-169-290300-
TEXAS TECH WEST TEXAS MESONET/PERMIAN BASIN/
CONCHO VALLEY/BIG COUNTRY/EDWARDS PLATEAU

CITY           SKY/WX    TMP DP  RH WIND       PRES   REMARKS
COYANOSA 2N      N/A     94  56  27 E12       30.06S
JUNCTION 1SSW    N/A     91  59  34 SE6       30.06R
MERTZON 3NNE     N/A     86  67  52 NE15      30.11R
SAN ANGELO 7NW   N/A     86  63  46 E18       30.10R
STRLNG CT 4WSW   N/A     85  66  52 NE12      30.13R
ST LAWRNCE 5SW   N/A     86  60  42 E18       30.12R
SWEETWATR 11SW   N/A     83  64  51 E13       30.16R
WALL 1E          N/A     86  64  47 NE16      30.10R
$$

TXZ055-058-074-075-080-082-290300-
TEXAS TECH WEST TEXAS MESONET/FAR WEST/SOUTHWEST MOUNTAINS/TRANS PECOS

CITY           SKY/WX    TMP DP  RH WIND       PRES   REMARKS
PRSMN GAP BBNP   N/A     91  53  27 NE13      30.07S
GUADLPE MTN NP   N/A     76  51  41 NE3       30.30R
$$